063  
ASUS41 KAKQ 290515  
RWRAKQ  
 
REGIONAL WEATHER ROUNDUP  
NATIONAL WEATHER SERVICE WAKEFIELD VA  
100 AM EDT THU JUN 29 2017  
 
NOTE: "FAIR" INDICATES FEW OR NO CLOUDS BELOW 12,000 FEET WITH NO  
SIGNIFICANT WEATHER AND/OR S TO VISIBILITY
. * = DENOTES  
STATION MAY NOT REPORT PRECIPITATION (E.G., RAIN,SNOW,ETC.),
 
THUNDER OR FOG.  
 
VAZ042-051-052>054-056-290600-  
NORTHERN VIRGINIA  
 
CITY SKY/WX TMP DP RH WIND PRES REMARKS
 
WASH NATIONAL CLEAR 70 59 68 S14 30.16S  
DULLES MOCLDY 67 53 61 S7 30.15R  
FORT BELVOIR CLEAR 67 56 70 SE7 30.15S  
QUANTICO CLEAR 72 60 66 SW14G20 30.17S  
FREDERICKSBRG* PTCLDY 67 58 72 S8 30.16S  
STAFFORD* PTCLDY 62 58 87 S3 30.20S  
WARRENTON CLEAR 61 52 71 CALM 30.16R  
CULPEPER* CLEAR 59 56 90 CALM 30.17S  
MANASSAS* CLEAR 60 54 80 CALM 30.16R  
LEESBURG* CLEAR 68 57 68 S8 30.16S  
WINCHESTER CLEAR 61 52 72 CALM 30.14S  
FRONT ROYAL* CLEAR 63 54 72 CALM 30.13S  
LURAY* PTCLDY 63 54 72 SW7 30.15F  

 
 
VAZ048-049-060>072-079>083-290600-  
CENTRAL AND SOUTH CENTRAL VIRGINIA  
 
CITY SKY/WX TMP DP RH WIND PRES REMARKS
 
RICHMOND CLOUDY 64 58 80 S5 30.18F  
CHESTERFIELD* NOT AVBL  
PETERSBURG* PTCLDY 60 56 88 CALM 30.20S  
HANOVER CLOUDY 66 55 67 VRB3 30.19S  
TAPPAHANNOCK* CLOUDY 62 50 65 CALM 30.19S  
QUINTON* FAIR 65 56 74 MISG 30.18F  
CHARLOTTSVILLE CLOUDY 65 57 75 W3 30.17R  
GORDONSVILLE* PTCLDY 58 56 93 CALM 30.16F  
ORANGE* CLOUDY 59 54 82 CALM 30.17S  
LOUISA* CLOUDY 66 57 72 CALM 30.16F  
BUMPASS* FAIR 62 55 79 SE5 30.17S  
FARMVILLE* PTCLDY 62 55 76 SW3 30.17S  
CREWE* FAIR 57 53 87 CALM 30.18S  
FORT PICKETT* FAIR N/A N/A N/A CALM 30.19S  
CHASE CITY* FAIR 60 60 99 CALM 30.19S  
CLARKSVILLE* FAIR 61 59 94 CALM 30.19S  
SOUTH HILL* CLEAR 58 57 97 CALM 30.25S  
LAWRENCEVILLE* FAIR 62 57 85 CALM 30.19S  
EMPORIA* PTCLDY 61 59 94 CALM 30.21S  

 
 
VAZ088>098-290600-  
SOUTHEAST VIRGINIA  
 
CITY SKY/WX TMP DP RH WIND PRES REMARKS
 
NORFOLK PTCLDY 68 60 75 S6 30.20F  
VIRGINIA BEACH PTCLDY 63 55 75 CALM 30.20F  
NORFOLK NAVAL PTCLDY 68 58 70 S6 30.21F  
WEST POINT* CLOUDY 66 55 66 S5 30.20F  
SALUDA* FAIR 65 57 75 S5 30.19S  
NEWPORT NEWS PTCLDY 68 58 70 S8 30.19F  
LANGLEY AFB CLEAR 68 60 76 CALM 30.19F  
FORT EUSTIS PTCLDY 69 60 74 SE7 30.17F  
WILLIAMSBURG* PTCLDY 72 61 68 S7 30.20F  
HR EXEC AP* FAIR 61 55 82 S3 30.19F  
FRANKLIN* PTCLDY 64 59 82 SE5 30.20F  
US460-WAKEFLD PTCLDY 65 58 78 CALM 30.19F  

 
 
VAZ020-022-025-037-045-290600-  
WEST CENTRAL AND SOUTHWEST VIRGINIA  
 
CITY SKY/WX TMP DP RH WIND PRES REMARKS
 
STAUNTON* CLEAR 56 52 87 W3 30.20S  
WAYNESBORO* CLOUDY 64 54 69 S3 30.19S  
HOT SPRINGS VA CLOUDY 59 46 63 S8 30.28S  
LYNCHBURG PTCLDY 63 56 78 S5 30.19S  
DANVILLE CLEAR 63 57 81 CALM 30.18F  
SOUTH BOSTON* FAIR 61 59 94 CALM 30.19R  
MARTINSVILLE CLEAR 58 57 96 CALM 30.22S  
ROANOKE CLOUDY 67 56 67 E5 30.21S  
BLACKSBURG CLOUDY 61 56 84 CALM 30.26S  
DUBLIN* CLOUDY 61 53 76 CALM 30.24S  
MARION* CLEAR 64 54 68 CALM 30.26R  
HILLSVILLE* CLOUDY 63 51 64 CALM 30.24S  
RICHLANDS* FAIR 67 16 14 S7 30.21F  
WISE* CLOUDY 68 54 60 S7 30.21S  
ABINGDON* CLEAR 65 58 78 CALM 30.20S  

 
 
MDZ021>025-VAZ099-100-290600-  
SOUTHERN MARYLAND AND THE DELMARVA PENINSULA  
 
CITY SKY/WX TMP DP RH WIND PRES REMARKS
 
PATUXENT RIVER CLOUDY 70 57 63 S6 30.17S  
BAY BRIDGE APT PTCLDY 72 59 64 S8 30.16R  
LEONARDTOWN CLOUDY 68 55 64 CALM 30.19S  
DOVER PTCLDY 63 62 97 S7 30.16S  
GEORGETOWN CLEAR 63 55 75 SW3 30.19R  
EASTON CLEAR 68 56 67 S5 30.21R  
CAMBRIDGE CLEAR 64 57 77 CALM 30.18R  
SALISBURY CLEAR 61 57 87 S7 30.19S  
OCEAN CITY CLEAR 67 59 75 SW6 30.19F  
WALLOPS ISLAND PTCLDY 66 61 84 SW7 30.20S  
ACCOMACK* CLEAR 63 57 82 S5 30.19F  

 
 
NCZ012>017-030>032-290600-  
NORTH CENTRAL AND EASTERN NORTH CAROLINA  
 
CITY SKY/WX TMP DP RH WIND PRES REMARKS
 
ROANOKE RAPIDS FAIR 61 59 94 CALM 30.19F  
RALEIGH PTCLDY 67 57 70 SE7 30.20F  
ELIZABETH CITY CLEAR 69 63 81 S6 30.21F  
AHOSKIE* N/A 61 60 97 CALM 30.21F  
EDENTON* CLEAR 71 64 80 CALM 30.21F  
CURRITUCK* CLEAR 65 63 93 CALM 30.22F  
KILL DEVIL HLS CLEAR 68 62 79 CALM 30.20F  
MANTEO CLEAR 66 62 87 CALM 30.22S  
CAPE HATTERAS NOT AVBL  
TARBORO* NOT AVBL  
GOLDSBORO CLEAR 68 63 84 CALM 30.19S  
WASHINGTON N/A N/A N/A N/A CALM 30.21F  
GREENVILLE CLEAR 66 61 82 CALM 30.22S  
NEW BERN CLEAR 65 60 84 CALM 30.22S  
WILMINGTON PTCLDY 66 61 84 CALM 30.20S  

 
 
VAZ048-290600-  
ELSEWHERE  
 
CITY SKY/WX TMP DP RH WIND PRES REMARKS
 
HARRISBURG PA MOCLDY 70 53 54 VRB6 30.12S  
BALTIMORE MOCLDY 66 56 70 S6 30.15S  
ANNAPOLIS PTCLDY 67 57 70 S9 30.15S  
ANDREWS AFB CLEAR 66 56 70 S8 30.15S  
PHILADELPHIA MOCLDY 69 57 65 S9 30.16R  
HENDERSON NC CLEAR 63 53 71 S5 30.19F  
GREENSBORO PTCLDY 68 58 70 S6 30.19S  
ROCKY MOUNT CLEAR 63 61 93 CALM 30.20F  

 
 
VAZ100-290600-  
MARINE  
 
STATION/POSITION TIME TEMP WIND PRES WAVE SWELL
 
AIR SEA DIR/SP/G HT/PER HT/PER  
(UTC) (F) (DEG/KT/KT) (MB) (FT/S) (FT/S)  
BRANDYWINE LGT 0442 68 220/ 15/ 18 1022.0R  
CAPE MAY NJ 0448 66 68 200/ 5/ 8 1021.6S  
LEWES DE 0448 66 69 210/ 4/ 7 1021.9R  
15NM E FENWICK I 0350 70 69 190/ 12/ 14 1022.6 2/ 3 2/ 9  
OCEAN-CITY-INLET 0448 68 68 220/ 11/ 12 1022.4F  
WACHAPREAGUE VA 0448 72 76 160/ 11/ 12 1022.2F  
THOMAS POINT MD 0500 72 76 200/ 21/ 23 N/A  
GOOSES REEF MD 0450 73 190/ 16/ 19 1022.2S  
COVE POINT MD 0448 71 210/ 12/ 14 1022.2F  
SOLOMONS ISLAND 0448 71 78 200/ 10/ 12 N/A  
BISHOPS HEAD MD 0448 74 78 190/ 15/ 19 1021.7F  
PINEY POINT MD 0442 210/ 14/ 17 N/A  
POTOMAC MD 0450 73 210/ 14/ 17 1021.1F  
CAMBRIDGE MD 0448 68 81 1022.4R  
LEWISETTA VA 0448 68 79 210/ 8/ 10 1021.7F  
RAPPAHANNOCK LGT 0442 170/ 14/ 15 1022.8F  
STINGRAY PT 0450 74 220/ 14/ 17 1021.7F  
YORK RVR RNG VA 0448 72 180/ 14/ 15 1022.4F  
YORKTOWN VA 0448 69 79 180/ 7/ 10 1022.0F  
JAMESTOWN VA 0450 70 160/ 14/ 17 N/A  
DOMINION TERM VA 0448 72 160/ 12/ 15 1022.4F  
KIPTOPEKE VA 0442 75 190/ 12/ 14 N/A  
CHES BAY BRIDGE 0448 70 74 200/ 12/ 14 1022.5F  
CAPE HENRY VA 0448 68 180/ 8/ 9 N/A  
WILLOUBY STN VA 0448 70 170/ 11/ 12 1022.2F  
S CRANEY ISL VA 0448 71 170/ 10/ 11 1022.5F  
CAPE HENRY BUOY 0430 72 N/A 2/ 8  
1ST LANDING BUOY 0450 72 1022.8F  
CAPE CHARLES BUO 0451 70 N/A 2/ 3  
64NM E OF VA BCH 0450 72 73 160/ 6/ 6 1023.5F 2/ 5 2/ 5  
DUCK PIER NC 0448 72 74 130/ 8/ 10 1022.7F  
44100 DUCK FRF 0405 73 N/A 2/ 5  
OREGON INLET NC 0442 71 77 100/ 3/ 4 1023.2R  
HATTERAS NC 0448 73 79 70/ 4/ 5 1022.7R  
DIAMOND SHLS NC 0450 79 83 120/ 2/ 6 1022.6R 2/ 6 2/ 6  
CAPE LOOKOUT NC 0500 78 40/ 4/ 5 1022.2S  

 
 
 
CLICK HERE TO GO TO PREVIOUS BULLETINS.

The Nexlab VA Page
The Nexlab NC Page
The Nexlab MD Page Main Text Page